Location: Bruch
(44.2051°N, 0.4120°E)
Time: 05:28:29
(UTC+00:00)

CENTAUR R/B - Pass Details

Date: 29 November 2020
Orbit: 750 x 1438 km, 63.4° (Epoch: 11 January)

Event Time Altitude Azimuth Distance (km) Brightness Sun altitude
Exits shadow 04:01:37 82° 304° (WNW) 1,399 3.0 -33.5°
Maximum altitude 04:02:04 87° 236° (SW) 1,393 3.1 -33.4°
Drops below altitude 10° 04:10:58 10° 147° (SSE) 3,539 5.7 -31.8°
Sets 04:13:56 0° 147° (SSE) 4,511 6.4 -31.2°
